TimeAKST,TemperatureF,Dew PointF,Humidity,Sea Level PressureIn,VisibilityMPH,Wind Direction,Wind SpeedMPH,Gust SpeedMPH,PrecipitationIn,Events,Conditions,WindDirDegrees,DateUTC
12:53 AM,12.0,5.0,73,29.84,10.0,NE,12.7,17.3,N/A,,Clear,50,2013-02-02 09:53:00
1:53 AM,12.9,3.9,67,29.81,10.0,NE,10.4,-,N/A,,Clear,50,2013-02-02 10:53:00
3:53 AM,9.0,1.9,73,29.78,10.0,ENE,9.2,-,N/A,,Clear,70,2013-02-02 12:53:00
4:53 AM,8.1,1.0,73,29.78,10.0,ENE,10.4,-,N/A,,Scattered Clouds,70,2013-02-02 13:53:00
5:53 AM,8.1,1.0,73,29.75,10.0,ENE,8.1,-,N/A,,Overcast,70,2013-02-02 14:53:00
6:53 AM,8.1,1.0,73,29.73,10.0,ENE,6.9,-,N/A,,Overcast,70,2013-02-02 15:53:00
7:53 AM,7.0,-0.0,73,29.73,10.0,ENE,6.9,-,N/A,,Mostly Cloudy,60,2013-02-02 16:53:00
8:53 AM,9.0,1.0,70,29.72,10.0,NE,6.9,-,N/A,,Overcast,50,2013-02-02 17:53:00
9:53 AM,10.0,1.9,70,29.71,10.0,NE,8.1,-,N/A,,Overcast,50,2013-02-02 18:53:00
10:53 AM,10.9,3.0,70,29.70,6.0,NE,8.1,-,0.00,Snow,Light Snow,40,2013-02-02 19:53:00
11:53 AM,12.9,3.9,67,29.70,10.0,NE,11.5,-,0.00,,Overcast,50,2013-02-02 20:53:00
12:53 PM,14.0,5.0,67,29.69,10.0,NE,10.4,-,N/A,,Overcast,40,2013-02-02 21:53:00
1:53 PM,15.1,7.0,70,29.67,10.0,NNE,8.1,-,N/A,,Overcast,30,2013-02-02 22:53:00
2:51 PM,15.8,8.6,73,29.63,5.0,NE,11.5,-,0.00,,Haze,40,2013-02-02 23:51:00
3:53 PM,16.0,9.0,74,29.63,9.0,NNE,12.7,-,0.00,,Overcast,30,2013-02-03 00:53:00
4:53 PM,16.0,10.0,77,29.62,10.0,NE,10.4,-,0.00,,Overcast,40,2013-02-03 01:53:00
5:53 PM,17.1,10.0,74,29.62,8.0,NE,12.7,-,0.00,Snow,Light Snow,40,2013-02-03 02:53:00
6:53 PM,17.1,10.0,74,29.61,10.0,NNE,8.1,-,0.00,,Overcast,30,2013-02-03 03:53:00
7:53 PM,17.1,10.0,74,29.61,5.0,NE,12.7,-,0.00,Snow,Light Snow,40,2013-02-03 04:53:00
8:53 PM,17.1,10.9,77,29.60,9.0,NE,12.7,-,0.00,Snow,Light Snow,40,2013-02-03 05:53:00
9:53 PM,18.0,10.9,74,29.59,9.0,NE,11.5,-,0.00,,Overcast,40,2013-02-03 06:53:00
10:53 PM,18.0,10.9,74,29.59,10.0,NNE,10.4,-,N/A,,Overcast,30,2013-02-03 07:53:00
11:53 PM,19.0,10.0,68,29.59,10.0,NE,12.7,-,N/A,,Overcast,40,2013-02-03 08:53:00